This is the latest recevied weather packets stored in our database for station/object KC3ELT-10. If no packets are shown the sender has not sent any weather packets the latest 10 day(s).
| Time | Temp. | Humidity | Pressure | Rain* | Wind** | Luminosity | Snow |
|---|---|---|---|---|---|---|---|
| 1777875779 | 10° C | 47% | 1008.1 hPa | 0 mm | 2.68 m/s, 254° | - | - |
| 1777875479 | 9.44° C | 47% | 1008.1 hPa | 0 mm | 0.45 m/s, 269° | - | - |
| 1777875179 | 9.44° C | 48% | 1008.3 hPa | 0 mm | 2.68 m/s, 252° | - | - |
| 1777874879 | 9.44° C | 49% | 1008.3 hPa | 0 mm | 3.13 m/s, 251° | - | - |
| 1777874579 | 9.44° C | 49% | 1008.3 hPa | 0 mm | 0.45 m/s, 275° | - | - |
| 1777874279 | 9.44° C | 49% | 1008.3 hPa | 0 mm | 0.89 m/s, 257° | - | - |
| 1777873979 | 9.44° C | 48% | 1008.3 hPa | 0 mm | 0 m/s | - | - |
| 1777873679 | 9.44° C | 49% | 1008.3 hPa | 0 mm | 1.79 m/s, 263° | - | - |
| 1777873379 | 9.44° C | 49% | 1008.3 hPa | 0 mm | 0.45 m/s, 221° | - | - |
| 1777873079 | 9.44° C | 48% | 1008.3 hPa | 0 mm | 1.79 m/s, 208° | - | - |
| 1777872779 | 9.44° C | 49% | 1008.3 hPa | 0 mm | 0.89 m/s, 259° | - | - |
| 1777872479 | 9.44° C | 48% | 1008.2 hPa | 0 mm | 0.45 m/s, 240° | - | - |
| 1777872179 | 9.44° C | 48% | 1008.2 hPa | 0 mm | 0.45 m/s, 217° | - | - |
| 1777871879 | 9.44° C | 48% | 1008.2 hPa | 0 mm | 0.89 m/s, 228° | - | - |
| 1777871579 | 9.44° C | 47% | 1008.3 hPa | 0 mm | 0.45 m/s, 240° | - | - |
| 1777871279 | 10° C | 47% | 1008.3 hPa | 0 mm | 0.89 m/s, 257° | - | - |
| 1777870979 | 10° C | 46% | 1008.3 hPa | 0 mm | 0.45 m/s, 167° | - | - |
| 1777870679 | 10° C | 46% | 1008.3 hPa | 0 mm | 0.45 m/s, 230° | - | - |
| 1777870379 | 10° C | 46% | 1008.3 hPa | 0 mm | 3.13 m/s, 248° | - | - |
| 1777870079 | 9.44° C | 47% | 1008.3 hPa | 0 mm | 1.34 m/s, 247° | - | - |
| 1777869779 | 9.44° C | 47% | 1008.2 hPa | 0 mm | 1.79 m/s, 255° | - | - |
| 1777869479 | 9.44° C | 47% | 1008.2 hPa | 0 mm | 1.79 m/s, 277° | - | - |
| 1777869179 | 9.44° C | 47% | 1008.2 hPa | 0 mm | 1.34 m/s, 265° | - | - |
| 1777868879 | 9.44° C | 47% | 1008 hPa | 0 mm | 0.45 m/s, 169° | - | - |
| 1777868579 | 9.44° C | 47% | 1008 hPa | 0 mm | 1.34 m/s, 236° | - | - |
* Rain latest hour (hover to see other rain measurements)
** Current wind speed in m/s (hover to see current wind gust speed)